DW8084 Weather Reports


time (UTC)temp
C
wind
direction
speed
KPH
gust
KPH
rain 1hr
cm
rain 24hr
cm
rain mn
cm
humidity
%
barometer
mb
20260506182206 13 11 4.8 12.9 0.00 0.00 0.00 52
20260506181205 13 16 4.8 11.3 0.00 0.00 0.00 51
20260506180204 13 31 1.6 6.4 0.00 0.00 0.00 52
20260506175418 13 40 1.6 8.0 0.00 0.00 0.00 50
20260506174419 13 35 3.2 8.0 0.00 0.00 0.00 50
20260506173205 13 35 3.2 11.3 0.00 0.00 0.00 50
20260506172416 14 33 3.2 8.0 0.00 0.00 0.00 50
20260506171206 14 31 4.8 9.7 0.00 0.00 0.00 49
20260506170417 14 42 4.8 9.7 0.00 0.00 0.00 49
20260506165205 14 14 1.6 9.7 0.00 0.00 0.00 49
20260506164205 14 323 1.6 3.2 0.00 0.00 0.00 49
20260506163205 14 341 3.2 8.0 0.00 0.00 0.00 49
20260506162205 15 357 4.8 9.7 0.00 0.00 0.00 47
20260506161205 15 348 3.2 9.7 0.00 0.00 0.00 49
20260506160206 15 12 3.2 9.7 0.00 0.00 0.00 48
20260506155205 14 37 3.2 11.3 0.00 0.00 0.00 48
20260506154206 15 20 1.6 8.0 0.00 0.00 0.00 49
20260506153416 15 353 3.2 11.3 0.00 0.00 0.00 52
20260506152205 15 356 6.4 17.7 0.00 0.00 0.00 50
20260506151418 15 348 3.2 8.0 0.00 0.00 0.00 50
20260506150205 14 338 4.8 12.9 0.00 0.00 0.00 54
20260506145208 13 22 4.8 14.5 0.00 0.00 0.00 53
20260506144205 13 40 3.2 6.4 0.00 0.00 0.00 56
20260506143205 14 21 4.8 14.5 0.00 0.00 0.00 54
20260506142205 13 6 4.8 11.3 0.00 0.00 0.00 55
20260506141205 13 358 4.8 16.1 0.00 0.00 0.00 53
20260506140205 14 30 4.8 11.3 0.00 0.00 0.00 54
20260506135205 13 48 4.8 9.7 0.00 0.00 0.00 55
20260506134205 13 45 3.2 9.7 0.00 0.00 0.00 52
20260506133205 14 36 6.4 14.5 0.00 0.00 0.00 51
20260506132205 14 13 1.6 4.8 0.00 0.00 0.00 55
20260506131204 13 8 4.8 12.9 0.00 0.00 0.00 53
20260506130204 13 29 6.4 16.1 0.00 0.00 0.00 53
20260506125205 13 47 3.2 14.5 0.00 0.00 0.00 53
20260506124205 13 33 6.4 14.5 0.00 0.00 0.00 55
20260506123205 13 21 6.4 16.1 0.00 0.00 0.00 54
20260506122204 13 12 4.8 9.7 0.00 0.00 0.00 56
20260506121205 12 3 6.4 16.1 0.00 0.00 0.00 57
20260506120204 12 16 6.4 16.1 0.00 0.00 0.00 58
20260506115205 12 14 6.4 14.5 0.00 0.00 0.00 59
20260506114204 12 3 6.4 20.9 0.00 0.00 0.00 60
20260506113418 12 22 6.4 19.3 0.00 0.00 0.00 58
20260506112204 12 27 6.4 16.1 0.00 0.00 0.00 60
20260506111415 11 16 4.8 17.7 0.00 0.00 0.00 63
20260506110205 11 14 6.4 12.9 0.00 0.00 0.00 62
20260506105204 11 23 4.8 19.3 0.00 0.00 0.00 64
20260506104204 12 47 4.8 9.7 0.00 0.00 0.00 63
20260506103205 11 34 4.8 12.9 0.00 0.00 0.00 66
20260506102205 11 17 3.2 16.1 0.00 0.00 0.00 66
20260506101204 11 18 3.2 8.0 0.00 0.00 0.00 67
20260506100205 11 13 3.2 11.3 0.00 0.00 0.00 67
20260506095205 11 13 3.2 9.7 0.00 0.00 0.00 68
20260506094205 11 24 4.8 11.3 0.00 0.00 0.00 67
20260506093204 10 32 6.4 14.5 0.00 0.00 0.00 68
20260506092416 11 21 4.8 11.3 0.00 0.00 0.00 67
20260506091205 10 30 6.4 14.5 0.00 0.00 0.00 67
20260506090204 11 45 4.8 12.9 0.00 0.00 0.00 66
20260506085205 10 60 6.4 12.9 0.00 0.00 0.00 67
20260506084205 10 63 6.4 17.7 0.00 0.00 0.00 67
20260506083204 10 55 6.4 12.9 0.00 0.00 0.00 68
20260506082207 10 43 4.8 12.9 0.00 0.00 0.00 70
20260506081205 9 32 4.8 9.7 0.00 0.00 0.00 71
20260506080204 8 41 4.8 9.7 0.00 0.00 0.00 73
20260506073204 8 56 3.2 6.4 0.00 0.00 0.00 76
20260506072204 8 63 3.2 9.7 0.00 0.00 0.00 76
20260506071205 8 59 4.8 11.3 0.00 0.00 0.00 76
20260506070204 7 51 4.8 12.9 0.00 0.00 0.00 76
20260506062204 7 56 4.8 11.3 0.00 0.00 0.00 77
20260506061204 7 54 4.8 19.3 0.00 0.00 0.00 77
20260506060204 7 52 4.8 14.5 0.00 0.00 0.00 78
20260506051204 7 34 3.2 12.9 0.00 0.00 0.00 83
20260506050204 8 31 3.2 11.3 0.00 0.00 0.00 83
20260506044204 8 35 3.2 9.7 0.00 0.00 0.00 81
20260506043418 8 39 3.2 12.9 0.00 0.00 0.00 80
20260506042204 8 52 1.6 6.4 0.00 0.00 0.00 80
20260506041415 8 46 3.2 9.7 0.00 0.00 0.00 79
20260506040416 8 49 3.2 8.0 0.00 0.00 0.00 79
20260506035205 8 52 3.2 6.4 0.00 0.00 0.00 79
20260506034204 8 55 4.8 11.3 0.00 0.00 0.00 79
20260506033204 8 60 1.6 4.8 0.00 0.00 0.00 79
20260506032414 8 58 3.2 11.3 0.00 0.00 0.00 79
20260506031204 8 63 4.8 9.7 0.00 0.00 0.00 80
20260506030204 8 65 3.2 9.7 0.00 0.00 0.00 79
20260506025417 8 68 4.8 11.3 0.00 0.00 0.00 79
20260506024204 9 70 4.8 9.7 0.00 0.00 0.00 81
20260506023204 9 70 4.8 14.5 0.00 0.00 0.00 81
20260506022203 9 69 4.8 12.9 0.00 0.00 0.00 82
20260506021203 10 58 3.2 6.4 0.00 0.00 0.00 83
20260506020205 10 56 1.6 6.4 0.00 0.00 0.00 83
20260506015203 10 62 1.6 8.0 0.00 0.00 0.00 83
20260506014204 10 62 3.2 9.7 0.00 0.00 0.00 83
20260506013415 10 65 1.6 3.2 0.00 0.00 0.00 83
20260506012203 10 67 3.2 11.3 0.00 0.00 0.00 83
20260506011417 10 65 6.4 12.9 0.00 0.00 0.00 83
20260506010203 10 42 1.6 4.8 0.00 0.00 0.00 84
20260506005204 10 33 1.6 6.4 0.00 0.00 0.00 84
20260506004203 10 27 3.2 9.7 0.00 0.00 0.00 83
20260506003415 9 22 1.6 8.0 0.00 0.00 0.00 83
20260506002416 9 25 3.2 9.7 0.00 0.00 0.00 83
20260506001417 9 19 3.2 8.0 0.00 0.00 0.00 82
20260506000204 10 19 3.2 8.0 0.00 0.00 0.00 82
20260505235203 10 23 1.6 8.0 0.00 0.00 0.00 81
20260505234204 10 16 3.2 11.3 0.00 0.00 0.00 80
20260505233204 10 18 3.2 14.5 0.00 0.00 0.00 80
20260505232205 10 23 6.4 12.9 0.00 0.00 0.00 79
20260505231204 10 15 4.8 14.5 0.00 0.00 0.00 79
20260505230205 10 3 3.2 14.5 0.00 0.00 0.00 78
20260505225204 10 359 3.2 12.9 0.00 0.00 0.00 78
20260505224204 10 3 3.2 8.0 0.00 0.00 0.00 78
20260505223204 10 7 3.2 8.0 0.00 0.00 0.00 77
20260505222203 10 352 3.2 11.3 0.00 0.00 0.00 77
20260505221413 10 352 3.2 14.5 0.00 0.00 0.00 77
20260505220204 10 348 3.2 8.0 0.00 0.00 0.00 77
20260505215204 10 339 3.2 6.4 0.00 0.00 0.00 77
20260505214203 10 335 1.6 4.8 0.00 0.00 0.00 77
20260505213204 10 332 1.6 4.8 0.00 0.00 0.00 77
20260505212203 10 334 3.2 6.4 0.00 0.00 0.00 77
20260505211203 10 337 3.2 6.4 0.00 0.00 0.00 76
20260505210203 10 348 1.6 6.4 0.00 0.00 0.00 76
20260505205204 10 347 1.6 8.0 0.00 0.00 0.00 76
20260505204203 11 345 3.2 8.0 0.00 0.00 0.00 76
20260505203418 11 344 1.6 6.4 0.00 0.00 0.00 76
20260505202204 11 342 3.2 11.3 0.00 0.00 0.00 75
20260505201415 11 346 1.6 6.4 0.00 0.00 0.00 75
20260505200204 11 345 1.6 4.8 0.00 0.00 0.00 73
20260505195205 11 337 1.6 6.4 0.00 0.00 0.00 73
20260505194203 11 332 1.6 8.0 0.00 0.00 0.00 72
20260505193204 11 329 3.2 9.7 0.00 0.00 0.00 71
20260505192205 12 343 3.2 9.7 0.00 0.00 0.00 70
20260505191203 12 355 3.2 8.0 0.00 0.00 0.00 68
20260505190204 12 354 4.8 12.9 0.00 0.00 0.00 67
20260505185203 12 355 4.8 12.9 0.00 0.00 0.00 66
20260505184203 12 3 6.4 16.1 0.00 0.00 0.00 65
20260505183205 12 14 3.2 9.7 0.00 0.00 0.00 63